Location: Sternwarte Radebeul
(51.1160°N, 13.6224°E)
Time: 17:29:04
(UTC+01:00)

ISS - Pass Details

Date: 26 January 2020
Orbit: 415 x 422 km, 51.6° (Epoch: 26 February)

Event Time Altitude Azimuth Distance (km) Brightness Sun altitude
Rises 18:22:13 0° 247° (WSW) 2,375 1.8 -15.1°
Reaches altitude 10° 18:24:19 10° 245° (WSW) 1,511 0.3 -15.4°
Maximum altitude 18:27:42 68° 162° (SSE) 460 -3.7 -16.0°
Enters shadow 18:28:45 40° 92° (E) 642 -3.3 -16.1°
